Eagle Mountain Lake Weather Center

Moon Phase Calendar



Eagle Mountain Lake Water Level
Online Cameras

 


      

Current Conditions in Pelican Bay
7/24/2021 10:42:33 PM

86°F
Feels Like 90
Clear
Humidity
55%
Pressure
29.94"
Wind
3 mph (SE)
Dew Point
68°F
UV Index
0/10 (Low)
Visibility
6 mi

Hourly Forecast

Date & Time Sat, Jul 24
10:00 PM
Sat, Jul 24
11:00 PM
Sun, Jul 25
12:00 AM
Sun, Jul 25
1:00 AM
Sun, Jul 25
2:00 AM
Sun, Jul 25
3:00 AM
Sun, Jul 25
4:00 AM
Sun, Jul 25
5:00 AM
Sun, Jul 25
6:00 AM
Sun, Jul 25
7:00 AM
Sun, Jul 25
8:00 AM
Sun, Jul 25
9:00 AM
Sun, Jul 25
10:00 AM
Sun, Jul 25
11:00 AM
Sun, Jul 25
12:00 PM
Sun, Jul 25
1:00 PM
Sun, Jul 25
2:00 PM
Sun, Jul 25
3:00 PM
Sun, Jul 25
4:00 PM
Sun, Jul 25
5:00 PM
Sun, Jul 25
6:00 PM
Sun, Jul 25
7:00 PM
Sun, Jul 25
8:00 PM
Sun, Jul 25
9:00 PM
Sun, Jul 25
10:00 PM
Sun, Jul 25
11:00 PM
Mon, Jul 26
12:00 AM
Mon, Jul 26
1:00 AM
Mon, Jul 26
2:00 AM
Mon, Jul 26
3:00 AM
Mon, Jul 26
4:00 AM
Mon, Jul 26
5:00 AM
Mon, Jul 26
6:00 AM
Mon, Jul 26
7:00 AM
Mon, Jul 26
8:00 AM
Mon, Jul 26
9:00 AM
Mon, Jul 26
10:00 AM
Mon, Jul 26
11:00 AM
Mon, Jul 26
12:00 PM
Mon, Jul 26
1:00 PM
Mon, Jul 26
2:00 PM
Mon, Jul 26
3:00 PM
Mon, Jul 26
4:00 PM
Mon, Jul 26
5:00 PM
Mon, Jul 26
6:00 PM
Mon, Jul 26
7:00 PM
Mon, Jul 26
8:00 PM
Mon, Jul 26
9:00 PM
Condition
Clear

Clear

Clear

Clear

Clear

Clear

Clear

Clear

Clear

Clear

Clear

Clear

Clear

Clear

Clear

Clear

Clear

Clear

Clear

Clear

Clear

Clear

Clear

Clear

Clear

Clear

Clear

Clear

Clear

Clear

Clear

Clear

Clear

Clear

Clouds

Clouds

Clouds

Clouds

Clouds

Clouds

Clouds

Clouds

Clear

Clear

Clear

Clear

Clear

Clear
Temperature 86°F86°F85°F84°F82°F80°F78°F77°F76°F75°F77°F82°F86°F90°F93°F96°F98°F99°F99°F99°F99°F96°F90°F87°F85°F83°F82°F80°F80°F79°F77°F77°F77°F76°F78°F83°F86°F90°F94°F96°F98°F99°F100°F100°F99°F96°F90°F88°F
Feels Like 88°F90°F88°F86°F84°F82°F78°F77°F76°F76°F78°F85°F90°F93°F96°F98°F100°F101°F100°F100°F99°F98°F91°F86°F84°F83°F82°F81°F80°F79°F78°F77°F77°F76°F79°F85°F88°F93°F96°F98°F99°F101°F101°F101°F101°F99°F93°F89°F
Cloudiness 1%1%1%1%0%0%0%0%0%0%0%0%0%0%0%0%0%0%0%0%0%0%0%0%0%0%0%0%0%1%0%1%1%3%35%44%55%43%36%41%20%14%10%7%6%5%0%0%
Visibility 6 mi6 mi6 mi6 mi6 mi6 mi6 mi6 mi6 mi6 mi6 mi6 mi6 mi6 mi6 mi6 mi6 mi6 mi6 mi6 mi6 mi6 mi6 mi6 mi6 mi6 mi6 mi6 mi6 mi6 mi6 mi6 mi6 mi6 mi6 mi6 mi6 mi6 mi6 mi6 mi6 mi6 mi6 mi6 mi6 mi6 mi6 mi6 mi
Precipitation 0%0%0%0%0%0%0%0%0%0%0%0%0%0%0%0%0%0%0%0%0%0%0%0%0%0%0%0%4%8%4%4%0%0%0%0%0%0%0%0%0%0%0%0%0%0%0%0%
Humidity 53%55%53%54%59%63%68%70%72%74%72%61%53%47%41%36%33%31%29%29%29%34%41%40%40%44%47%51%54%57%61%62%63%65%65%56%51%44%38%34%30%29%28%29%30%36%45%43%
Dew Point 67°F68°F66°F65°F66°F66°F66°F66°F66°F66°F67°F67°F67°F67°F66°F65°F63°F63°F62°F61°F61°F63°F63°F59°F58°F59°F59°F60°F61°F62°F63°F63°F63°F63°F65°F66°F66°F65°F64°F63°F62°F61°F61°F62°F62°F65°F66°F63°F
Pressure 29.94"29.94"29.94"29.94"29.94"29.94"29.94"29.94"29.94"29.97"29.97"30"30"29.97"29.97"29.94"29.91"29.88"29.88"29.85"29.85"29.83"29.83"29.85"29.85"29.88"29.88"29.91"29.91"29.91"29.91"29.88"29.91"29.91"29.94"29.94"29.94"29.94"29.94"29.91"29.88"29.88"29.88"29.85"29.85"29.85"29.85"29.85"
Wind Speed 10.6 mph11.1 mph9.9 mph9.6 mph10 mph10.4 mph9.7 mph9.1 mph8.6 mph7.4 mph7 mph9.8 mph10.3 mph10.2 mph8.9 mph8.5 mph8.4 mph8.8 mph9.2 mph9.3 mph9.7 mph9.1 mph10.1 mph11.4 mph11.2 mph10.2 mph10 mph9.8 mph8.9 mph8.7 mph7.8 mph8.2 mph8.2 mph7.9 mph7 mph8.9 mph8.8 mph8.6 mph7.6 mph6.8 mph6.2 mph5.7 mph5.8 mph6.4 mph8 mph9.2 mph9.4 mph9.9 mph
Wind
Direction
175°
S
181°
S
178°
S
176°
S
181°
S
184°
S
184°
S
192°
SSW
192°
SSW
195°
SSW
202°
SSW
215°
SW
225°
SW
224°
SW
214°
SW
209°
SSW
200°
SSW
188°
S
181°
S
175°
S
168°
SSE
157°
SSE
154°
SSE
162°
SSE
165°
SSE
170°
S
177°
S
179°
S
182°
S
181°
S
188°
S
197°
SSW
206°
SSW
210°
SSW
201°
SSW
212°
SSW
216°
SW
221°
SW
217°
SW
207°
SSW
191°
S
171°
S
157°
SSE
153°
SSE
159°
SSE
167°
SSE
172°
S
163°
SSE

Daily Forecast

Date High Low Precip. Humidity
Today
Jul 24

Clear
98 °F
74 °F
0%
49%
Sunday
Jul 25

Clear
99 °F
75 °F
0%
36%
Monday
Jul 26

Clouds
100 °F
76 °F
8%
34%
Tuesday
Jul 27

Clouds
100 °F
78 °F
0%
33%
Wednesday
Jul 28

Rain
96 °F
78 °F
57%
45%
Thursday
Jul 29

Clouds
98 °F
78 °F
0%
37%
Friday
Jul 30

Clouds
99 °F
81 °F
1%
38%
Saturday
Jul 31

Clear
100 °F
79 °F
0%
39%
Sunday
Aug 1

Clear
102 °F
80 °F
0%
35%
Monday
Aug 2

Clear
102 °F
80 °F
32%
36%
Tuesday
Aug 3

Clouds
101 °F
80 °F
0%
38%
Wednesday
Aug 4

Clouds
100 °F
79 °F
0%
39%
Thursday
Aug 5

Clear
100 °F
78 °F
0%
36%
Friday
Aug 6

Clear
101 °F
79 °F
0%
37%
Saturday
Aug 7

Clouds
102 °F
80 °F
4%
36%
Sunday
Aug 8

Clouds
100 °F
80 °F
0%
34%

Temperature 8-14 Day Outlook



Precipitation 8-14 Day Outlook




Quick Links
Eagle Mountain Lake News
Eagle Mountain Lake Photos
Eagle Mountain Lake Videos




About Us
Contact Us
Site Map
Search Site
Advertise With Us
   
EagleMountain.LakesOnline.com
THE EAGLE MOUNTAIN LAKE WEBSITE

Copyright 2021, Lakes Online
Privacy    |    Legal